Overview Statistics Trail Chart Weather Telemetry Raw packets
 

This is the latest recevied weather packets stored in our database for station/object ZL1CTS-13. If no packets are shown the sender has not sent any weather packets the latest 10 day(s).

<< 69 70 71 72 73 74 75 >>
Time Temp. Humidity Pressure Rain* Wind** Luminosity Snow
1788295504 13.33° C 99% 1009.4 hPa 0 mm - - -
1788295204 12.78° C 97% 1009.2 hPa 0 mm - - -
1788294904 12.78° C 97% 1009.1 hPa 0 mm - - -
1788294630 12.78° C 97% 1009.3 hPa 0 mm - - -
1788294630 12.78° C 97% 1009.3 hPa 0 mm - - -
1788294304 13.33° C 99% 1009.2 hPa 0 mm - - -
1788294004 13.33° C 99% 1009.2 hPa 0 mm - - -
1788293711 13.33° C 99% 1009.3 hPa 0 mm - - -
1788293704 13.33° C 99% 1009.3 hPa 0 mm - - -
1788293404 12.78° C 97% 1009.3 hPa 0 mm - - -
1788293104 12.78° C 97% 1009.3 hPa 0 mm - - -
1788292806 12.78° C 97% 1009.3 hPa 0 mm - - -
1788292804 12.78° C 97% 1009.3 hPa 0 mm - - -
1788292505 12.22° C 97% 1009.3 hPa 0 mm - - -
1788292204 12.22° C 97% 1009.1 hPa 0 mm - - -
1788291907 11.67° C 98% 1009.1 hPa 0 mm - - -
1788291904 11.67° C 98% 1009.1 hPa 0 mm - - -
1788291604 11.67° C 98% 1008.9 hPa 0 mm - - -
1788291304 11.67° C 98% 1008.9 hPa 0 mm - - -
1788291006 11.67° C 98% 1008.8 hPa 0 mm - - -
1788291004 11.67° C 98% 1008.8 hPa 0 mm - - -
1788290704 11.67° C 98% 1008.7 hPa 0 mm - - -
1788290405 11.11° C 98% 1008.7 hPa 0 mm - - -
1788290111 11.67° C 98% 1008.7 hPa 0 mm - - -
1788290103 11.67° C 98% 1008.7 hPa 0 mm - - -

* Rain latest hour (hover to see other rain measurements)
** Current wind speed in m/s (hover to see current wind gust speed)